FW8536 Weather Reports


Display with metric or nautical units.
time (UTC)temp
F
wind
direction
speed
MPH
gust
MPH
rain 1hr
in
rain 24hr
in
rain mn
in
humidity
%
barometer
mb
20260904014045 75 360 6.0 7.0 0.00 0.00 0.00 51 993.8
20260904013544 76 360 5.0 7.0 0.00 0.00 0.00 50 993.6
20260904013058 76 360 5.0 6.0 0.00 0.00 0.00 50 993.6
20260904012541 77 360 5.0 7.0 0.00 0.00 0.00 49 993.5
20260904012041 77 351 5.0 7.0 0.00 0.00 0.00 47 993.4
20260904011653 78 13 6.0 8.0 0.00 0.00 0.00 46 993.4
20260904011040 79 360 6.0 8.0 0.00 0.00 0.00 46 993.4
20260904010538 79 360 6.0 8.0 0.00 0.00 0.00 44 993.3
20260904010037 80 24 5.0 7.0 0.00 0.00 0.00 43 993.2
20260904005539 81 32 5.0 8.0 0.00 0.00 0.00 42 993.3
20260904005033 81 360 6.0 8.0 0.00 0.00 0.00 41 993.2
20260904004532 82 360 5.0 9.0 0.00 0.00 0.00 40 993.2
20260904004033 83 19 6.0 9.0 0.00 0.00 0.00 39 993.1
20260904003534 84 15 7.0 9.0 0.00 0.00 0.00 36 993.1
20260904003034 84 360 5.0 9.0 0.00 0.00 0.00 30 993.1
20260904002530 84 360 5.0 9.0 0.00 0.00 0.00 30 993.1
20260904002030 85 360 5.0 10.0 0.00 0.00 0.00 29 992.9
20260904001628 86 360 8.0 10.0 0.00 0.00 0.00 29 992.8
20260904001028 86 327 7.0 10.0 0.00 0.00 0.00 29 992.8
20260904000528 86 331 6.0 9.0 0.00 0.00 0.00 29 992.7
20260904000027 86 336 7.0 9.0 0.00 0.00 0.00 29 992.6
20260903235527 87 355 6.0 9.0 0.00 0.00 0.00 29 992.6
20260903235026 87 344 3.0 8.0 0.00 0.00 0.00 29 992.5
20260903234526 87 346 0.0 7.0 0.00 0.00 0.00 29 992.6
20260903234026 87 346 2.0 7.0 0.00 0.00 0.00 29 992.6
20260903233527 86 321 2.0 11.0 0.00 0.00 0.00 29 992.4
20260903233034 86 360 5.0 11.0 0.00 0.00 0.00 29 992.6
20260903232528 87 360 6.0 11.0 0.00 0.00 0.00 29 992.4
20260903232025 86 303 5.0 11.0 0.00 0.00 0.00 30 992.4
20260903231625 86 303 5.0 11.0 0.00 0.00 0.00 30 992.2
20260903231004 86 303 7.0 12.0 0.00 0.00 0.00 30 992.3
20260903230503 86 253 8.0 12.0 0.00 0.00 0.00 30 992.2
20260903230004 86 360 5.0 11.0 0.00 0.00 0.00 32 992.2
20260903225505 87 360 5.0 11.0 0.00 0.00 0.00 32 992.1
20260903225003 87 247 5.0 10.0 0.00 0.00 0.00 32 992.1
20260903224503 87 324 7.0 11.0 0.00 0.00 0.00 32 992.1
20260903224103 87 5 3.0 8.0 0.00 0.00 0.00 33 992.0
20260903223503 86 360 0.0 8.0 0.00 0.00 0.00 33 992.1
20260903223001 86 360 4.0 9.0 0.00 0.00 0.00 33 992.0
20260903222501 86 360 5.0 12.0 0.00 0.00 0.00 32 991.9
20260903222003 87 314 6.0 12.0 0.00 0.00 0.00 32 991.9
20260903221601 86 296 6.0 10.0 0.00 0.00 0.00 32 991.8
20260903221001 87 360 6.0 9.0 0.00 0.00 0.00 32 991.8
20260903220603 87 19 5.0 14.0 0.00 0.00 0.00 30 991.7
20260903220100 87 360 8.0 15.0 0.00 0.00 0.00 31 991.8
20260903215600 87 360 11.0 15.0 0.00 0.00 0.00 31 991.7
20260903215100 88 319 4.0 8.0 0.00 0.00 0.00 31 991.6
20260903214606 87 360 3.0 14.0 0.00 0.00 0.00 31 991.6
20260903214158 86 316 8.0 13.0 0.00 0.00 0.00 30 991.6
20260903213557 86 360 9.0 13.0 0.00 0.00 0.00 30 991.6
20260903213057 86 360 5.0 11.0 0.00 0.00 0.00 30 991.6
20260903212556 85 234 6.0 12.0 0.00 0.00 0.00 31 991.7
20260903212057 86 212 8.0 16.0 0.00 0.00 0.00 30 991.7
20260903211557 85 241 5.0 10.0 0.00 0.00 0.00 31 991.7
20260903211055 85 227 6.0 15.0 0.00 0.00 0.00 32 991.7
20260903210555 85 245 10.0 15.0 0.00 0.00 0.00 33 991.8
20260903210116 84 297 7.0 21.0 0.00 0.00 0.00 34 991.8
20260903205551 83 360 12.0 21.0 0.00 0.00 0.00 34 991.7
20260903205051 83 317 11.0 21.0 0.00 0.00 0.00 35 991.8
20260903204601 83 319 1.0 12.0 0.00 0.00 0.00 39 991.8
20260903204150 83 10 1.0 9.0 0.00 0.00 0.00 39 992.0
20260903203548 83 15 2.0 9.0 0.00 0.00 0.00 39 991.7
20260903203051 83 10 4.0 9.0 0.00 0.00 0.00 38 991.6
20260903202547 84 350 6.0 10.0 0.00 0.00 0.00 37 991.6
20260903202048 84 360 6.0 11.0 0.00 0.00 0.00 37 991.6
20260903201547 84 337 5.0 12.0 0.00 0.00 0.00 39 991.8
20260903201046 84 316 6.0 12.0 0.00 0.00 0.00 39 991.6
20260903200545 84 269 2.0 10.0 0.00 0.00 0.00 40 991.7
20260903200056 84 13 3.0 9.0 0.00 0.00 0.00 40 991.8
20260903195545 83 277 2.0 9.0 0.00 0.00 0.00 44 991.7
20260903195047 83 307 3.0 9.0 0.00 0.00 0.00 44 991.7
20260903194544 82 76 1.0 7.0 0.00 0.00 0.00 46 991.8
20260903194147 82 329 1.0 10.0 0.00 0.00 0.00 47 991.7
20260903193542 82 329 2.0 10.0 0.00 0.00 0.00 47 991.7
20260903193042 81 360 5.0 10.0 0.00 0.00 0.00 48 991.5
20260903192542 80 289 4.0 8.0 0.00 0.00 0.00 50 991.6
20260903192041 80 123 1.0 8.0 0.00 0.00 0.00 52 991.5
20260903191542 79 123 3.0 8.0 0.00 0.00 0.00 53 991.5
20260903191041 79 360 4.0 8.0 0.00 0.00 0.00 54 991.6
20260903190543 78 78 2.0 8.0 0.00 0.00 0.00 55 991.5
20260903190040 78 360 3.0 8.0 0.00 0.00 0.00 56 991.6
20260903185539 78 360 4.0 8.0 0.00 0.00 0.00 57 991.5
20260903185038 77 360 2.0 8.0 0.00 0.00 0.00 56 991.4
20260903184538 77 30 4.0 8.0 0.00 0.00 0.00 58 991.5
20260903184139 76 229 1.0 5.0 0.00 0.00 0.00 61 991.8
20260903183537 76 225 1.0 5.0 0.00 0.00 0.00 60 991.8
20260903183044 75 360 0.0 5.0 0.00 0.00 0.00 62 991.9
20260903182538 74 238 1.0 6.0 0.00 0.00 0.00 63 992.1
20260903182037 74 360 0.0 6.0 0.00 0.00 0.00 65 992.0
20260903181537 73 172 2.0 7.0 0.00 0.00 0.00 66 992.2
20260903181037 73 173 5.0 7.0 0.00 0.00 0.00 66 992.2
20260903180538 72 136 0.0 5.0 0.00 0.00 0.00 67 992.1
20260903180042 72 136 3.0 8.0 0.00 0.00 0.00 67 992.1
20260903175536 72 136 6.0 8.0 0.00 0.00 0.00 67 992.2
20260903175037 72 123 3.0 7.0 0.00 0.00 0.00 68 992.2
20260903174537 72 119 4.0 9.0 0.00 0.00 0.00 68 992.3
20260903174137 72 121 5.0 9.0 0.00 0.00 0.00 68 992.3
20260903173536 72 129 6.0 9.0 0.00 0.00 0.00 68 992.4
20260903173036 72 91 4.0 10.0 0.00 0.00 0.00 67 992.6
20260903172537 72 360 7.0 10.0 0.00 0.00 0.00 67 992.5
20260903172036 72 360 7.0 10.0 0.00 0.00 0.00 68 992.6
20260903171542 71 102 6.0 10.0 0.00 0.00 0.00 68 992.8
20260903171035 71 101 7.0 10.0 0.00 0.00 0.00 70 992.7
20260903170535 70 166 5.0 8.0 0.00 0.00 0.00 70 992.9
20260903170043 70 146 3.0 8.0 0.00 0.00 0.00 70 992.9
20260903165535 70 174 2.0 9.0 0.00 0.00 0.00 70 992.9
20260903165035 70 178 4.0 10.0 0.00 0.00 0.00 71 992.9
20260903164535 70 360 6.0 11.0 0.00 0.00 0.00 70 992.8
20260903164137 70 360 7.0 12.0 0.00 0.00 0.00 71 993.1
20260903163535 70 360 8.0 12.0 0.00 0.00 0.00 71 993.0
20260903163040 70 102 8.0 15.0 0.00 0.00 0.00 71 992.8
20260903162535 70 123 11.0 15.0 0.00 0.00 0.00 71 992.7
20260903162035 70 106 11.0 15.0 0.00 0.00 0.00 70 992.2
20260903161534 70 100 8.0 15.0 0.00 0.00 0.00 70 992.4
20260903161035 70 194 11.0 14.0 0.00 0.00 0.00 70 993.5
20260903160535 70 360 5.0 10.0 0.00 0.00 0.00 71 992.6
20260903160034 70 166 5.0 18.0 0.00 0.00 0.00 71 992.8
20260903155536 70 360 9.0 18.0 0.00 0.00 0.00 73 993.5
20260903155038 69 205 10.0 15.0 0.00 0.00 0.00 73 993.2
20260903154534 68 360 7.0 15.0 0.00 0.00 0.00 74 993.1
20260903154136 68 360 9.0 13.0 0.00 0.00 0.00 75 993.2
20260903153535 68 360 10.0 13.0 0.00 0.00 0.00 75 993.5
20260903153035 68 360 6.0 9.0 0.00 0.00 0.00 75 993.2
20260903152535 67 360 5.0 11.0 0.00 0.00 0.00 76 993.0
20260903152035 67 177 5.0 11.0 0.00 0.00 0.00 76 993.1
20260903151539 67 360 5.0 10.0 0.00 0.00 0.00 76 993.2
20260903151034 67 360 6.0 10.0 0.00 0.00 0.00 76 993.4
20260903150534 67 360 4.0 7.0 0.00 0.00 0.00 77 993.3
20260903150045 66 360 4.0 8.0 0.00 0.00 0.00 78 993.4
20260903145532 66 360 3.0 7.0 0.00 0.00 0.00 77 993.2
20260903145033 66 360 4.0 7.0 0.00 0.00 0.00 78 992.6
20260903144533 66 360 4.0 7.0 0.00 0.00 0.00 79 992.3
20260903144132 65 360 5.0 6.0 0.00 0.00 0.00 80 992.7
20260903143533 65 360 5.0 7.0 0.00 0.00 0.00 80 992.9
20260903143037 65 360 4.0 11.0 0.00 0.00 0.00 79 992.8
20260903142531 65 360 6.0 12.0 0.00 0.00 0.00 80 993.1
20260903142030 65 360 9.0 11.0 0.00 0.00 0.00 80 993.2
20260903141531 64 360 6.0 11.0 0.00 0.00 0.00 81 993.1
20260903141030 64 360 7.0 11.0 0.00 0.00 0.00 82 993.1
20260903140533 64 360 5.0 7.0 0.00 0.00 0.00 82 992.8
20260903140028 63 360 3.0 10.0 0.00 0.00 0.00 82 992.2
20260903135531 63 360 7.0 11.0 0.00 0.00 0.00 82 991.9
20260903135029 63 360 7.0 13.0 0.00 0.00 0.00 82 991.8
20260903134527 63 360 7.0 13.0 0.00 0.00 0.00 82 991.5
20260903134126 63 360 8.0 10.0 0.00 0.00 0.00 81 991.5
20260903133532 63 360 8.0 10.0 0.00 0.00 0.00 80 992.0
20260903133026 63 360 6.0 9.0 0.00 0.00 0.00 80 992.0
20260903132525 63 360 5.0 7.0 0.00 0.00 0.00 80 992.2
20260903132025 63 360 4.0 7.0 0.00 0.00 0.00 80 992.3
20260903131525 63 360 5.0 7.0 0.00 0.00 0.00 79 992.1
20260903131025 63 360 4.0 6.0 0.00 0.00 0.00 78 992.3
20260903130527 63 360 4.0 6.0 0.00 0.00 0.00 78 992.1
20260903130026 63 360 4.0 7.0 0.00 0.00 0.00 79 991.9
20260903125526 63 360 5.0 7.0 0.00 0.00 0.00 79 991.7
20260903125024 63 360 4.0 6.0 0.00 0.00 0.00 79 991.7
20260903124524 63 360 3.0 7.0 0.00 0.00 0.00 79 991.8
20260903124124 62 360 5.0 7.0 0.00 0.00 0.00 79 991.7
20260903123523 62 360 5.0 7.0 0.00 0.00 0.00 79 991.7
20260903123025 62 360 4.0 8.0 0.00 0.00 0.00 79 991.7
20260903122526 62 360 5.0 8.0 0.00 0.00 0.00 79 991.7
20260903122023 62 360 5.0 7.0 0.00 0.00 0.00 79 991.7
20260903121523 62 360 4.0 7.0 0.00 0.00 0.00 79 991.8
20260903121022 62 360 4.0 7.0 0.00 0.00 0.00 79 991.9
20260903120523 62 360 5.0 7.0 0.00 0.00 0.00 79 991.6
20260903120023 63 360 5.0 7.0 0.00 0.00 0.00 78 991.7
20260903115520 63 360 6.0 7.0 0.00 0.00 0.00 77 991.7
20260903115018 64 360 5.0 6.0 0.00 0.00 0.00 77 991.8
20260903114518 64 360 4.0 7.0 0.00 0.00 0.00 76 991.6
20260903114117 64 360 5.0 8.0 0.00 0.00 0.00 75 991.6
20260903113519 65 360 5.0 8.0 0.00 0.00 0.00 75 991.6
20260903113021 65 360 6.0 8.0 0.00 0.00 0.00 74 991.6
20260903112518 65 360 3.0 10.0 0.00 0.00 0.00 74 991.7
20260903112018 66 360 6.0 12.0 0.00 0.00 0.00 74 991.6
20260903111518 65 360 7.0 12.0 0.00 0.00 0.00 75 991.7
20260903111022 65 360 7.0 11.0 0.00 0.00 0.00 75 991.6
20260903110517 65 360 8.0 13.0 0.00 0.00 0.00 76 991.5
20260903110018 65 360 8.0 13.0 0.00 0.00 0.00 76 991.3
20260903105517 64 360 8.0 11.0 0.00 0.00 0.00 77 991.1
20260903105017 64 360 6.0 12.0 0.00 0.00 0.00 76 991.3
20260903104517 64 360 7.0 13.0 0.00 0.00 0.00 76 991.3
20260903104116 64 360 7.0 12.0 0.00 0.00 0.00 75 991.2
20260903103515 64 360 7.0 12.0 0.00 0.00 0.00 75 991.2
20260903103015 64 360 7.0 14.0 0.00 0.00 0.00 75 991.3
20260903102516 64 360 8.0 14.0 0.00 0.00 0.00 75 991.1
20260903102015 64 360 8.0 18.0 0.00 0.00 0.00 74 991.1
20260903101535 64 360 10.0 18.0 0.00 0.00 0.00 74 990.8
20260903101012 65 38 10.0 14.0 0.00 0.00 0.00 74 990.9
20260903100512 65 360 7.0 12.0 0.00 0.00 0.00 73 991.2
20260903100012 65 41 8.0 14.0 0.00 0.00 0.00 73 991.1
20260903095515 65 31 9.0 14.0 0.00 0.00 0.00 73 991.3
20260903095011 65 24 9.0 15.0 0.00 0.00 0.00 72 991.3
20260903094657 65 19 10.0 15.0 0.00 0.00 0.00 72 991.2
20260903094110 65 17 9.0 12.0 0.00 0.00 0.00 71 990.9
20260903093510 65 20 8.0 12.0 0.00 0.00 0.00 71 990.7
20260903093010 65 23 8.0 13.0 0.00 0.00 0.00 70 990.6
20260903092509 65 14 9.0 14.0 0.00 0.00 0.00 70 990.5
20260903092009 66 360 10.0 14.0 0.00 0.00 0.00 70 990.5
20260903091508 66 17 10.0 16.0 0.00 0.00 0.00 70 990.6
20260903091007 66 18 12.0 18.0 0.00 0.00 0.00 69 990.5
20260903090506 67 11 13.0 19.0 0.00 0.00 0.00 69 990.6
20260903090005 67 360 12.0 16.0 0.00 0.00 0.00 69 990.7
20260903085503 67 22 11.0 16.0 0.00 0.00 0.00 68 990.8
20260903085002 67 18 12.0 18.0 0.00 0.00 0.00 68 990.9
20260903084507 68 21 11.0 15.0 0.00 0.00 0.00 67 991.1
20260903084105 68 19 12.0 18.0 0.00 0.00 0.00 67 991.0
20260903083505 68 5 13.0 18.0 0.00 0.00 0.00 66 991.2
20260903083003 69 5 11.0 18.0 0.00 0.00 0.00 68 991.3
20260903082502 68 351 14.0 19.0 0.00 0.00 0.00 70 991.3
20260903082003 68 351 14.0 19.0 0.00 0.00 0.00 70 991.3
20260903081502 68 325 13.0 20.0 0.00 0.00 0.00 68 991.4
20260903081100 68 301 15.0 20.0 0.00 0.00 0.00 67 991.4
20260903080559 69 321 12.0 19.0 0.00 0.00 0.00 65 991.5
20260903075557 72 339 10.0 14.0 0.00 0.00 0.00 71 991.7
20260903075055 72 360 7.0 10.0 0.00 0.00 0.00 73 991.5
20260903074603 72 11 8.0 10.0 0.00 0.00 0.00 73 991.5
20260903074059 72 13 6.0 9.0 0.00 0.00 0.00 73 991.5
20260903073056 72 360 5.0 9.0 0.00 0.00 0.00 73 991.4
20260903072557 72 360 5.0 10.0 0.00 0.00 0.00 73 991.6
20260903072056 72 344 6.0 10.0 0.00 0.00 0.00 73 991.5
20260903071554 72 311 4.0 7.0 0.00 0.00 0.00 72 991.6
20260903071055 72 265 2.0 8.0 0.00 0.00 0.00 73 991.6
20260903070556 72 267 6.0 8.0 0.00 0.00 0.00 72 991.7
20260903070053 72 360 3.0 8.0 0.00 0.00 0.00 72 991.3
20260903065555 72 268 2.0 10.0 0.00 0.00 0.00 72 991.1
20260903065051 73 258 7.0 10.0 0.00 0.00 0.00 71 991.3
20260903064600 73 201 3.0 13.0 0.00 0.00 0.00 70 991.1
20260903064050 73 116 12.0 21.0 0.00 0.00 0.00 70 990.6
20260903063051 73 111 11.0 21.0 0.00 0.00 0.00 70 990.2
20260903062551 73 104 13.0 20.0 0.00 0.00 0.00 70 989.9
20260903062050 73 102 9.0 23.0 0.00 0.00 0.00 70 989.8
20260903061550 73 111 14.0 23.0 0.00 0.00 0.00 70 989.8
20260903061151 73 128 11.0 21.0 0.00 0.00 0.00 70 990.1
20260903060550 73 117 14.0 20.0 0.00 0.00 0.00 70 990.2
20260903060054 73 123 11.0 22.0 0.00 0.00 0.00 70 990.2
20260903055550 73 143 11.0 22.0 0.00 0.00 0.00 69 990.2
20260903055050 73 120 13.0 19.0 0.00 0.00 0.00 69 989.8
20260903054549 73 360 9.0 16.0 0.00 0.00 0.00 68 989.8
20260903054050 73 114 13.0 22.0 0.00 0.00 0.00 68 989.7
20260903053102 74 107 12.0 21.0 0.00 0.00 0.00 67 989.7
20260903052548 74 108 15.0 21.0 0.00 0.00 0.00 67 989.9
20260903052052 73 105 12.0 26.0 0.00 0.00 0.00 67 989.8
20260903051550 73 360 16.0 26.0 0.00 0.00 0.00 67 989.5
20260903051047 74 107 14.0 27.0 0.00 0.00 0.00 66 989.4
20260903050546 74 92 21.0 27.0 0.00 0.00 0.00 66 989.5
20260903050043 74 105 17.0 24.0 0.00 0.00 0.00 66 989.7
20260903045543 74 360 15.0 26.0 0.00 0.00 0.00 65 990.0
20260903045041 74 360 16.0 25.0 0.00 0.00 0.00 66 990.1
20260903044542 75 90 18.0 25.0 0.00 0.00 0.00 65 990.5
20260903044039 74 360 13.0 20.0 0.00 0.00 0.00 66 990.7
20260903043039 75 105 13.0 20.0 0.00 0.00 0.00 66 990.8
20260903042542 75 93 10.0 25.0 0.00 0.00 0.00 66 990.8
20260903042039 75 99 12.0 25.0 0.00 0.00 0.00 65 990.9
20260903041540 75 112 14.0 21.0 0.00 0.00 0.00 65 991.0
20260903041038 75 88 14.0 21.0 0.00 0.00 0.00 66 991.0
20260903040537 75 97 12.0 24.0 0.00 0.00 0.00 66 991.1
20260903040043 75 103 15.0 24.0 0.00 0.00 0.00 66 991.0
20260903035537 75 100 15.0 22.0 0.00 0.00 0.00 66 991.1
20260903035034 75 109 14.0 21.0 0.00 0.00 0.00 66 991.0
20260903034535 76 94 9.0 20.0 0.00 0.00 0.00 66 991.1
20260903034034 76 88 10.0 16.0 0.00 0.00 0.00 65 991.0
20260903033031 76 86 12.0 18.0 0.00 0.00 0.00 65 991.3
20260903032531 76 94 12.0 16.0 0.00 0.00 0.00 65 991.2
20260903032031 76 115 10.0 16.0 0.00 0.00 0.00 65 991.2
20260903031532 76 89 10.0 15.0 0.00 0.00 0.00 65 991.0
20260903031032 76 87 8.0 16.0 0.00 0.00 0.00 64 990.9
20260903030532 76 81 10.0 16.0 0.00 0.00 0.00 64 990.8
20260903030033 77 96 9.0 15.0 0.00 0.00 0.00 64 990.9
20260903025528 77 83 10.0 18.0 0.00 0.00 0.00 63 990.9
20260903025027 77 88 12.0 18.0 0.00 0.00 0.00 63 991.0
20260903024526 77 88 11.0 20.0 0.00 0.00 0.00 63 990.9
20260903024027 77 98 13.0 20.0 0.00 0.00 0.00 63 991.0
20260903023030 78 109 11.0 20.0 0.00 0.00 0.00 62 991.0
20260903022525 78 92 12.0 18.0 0.00 0.00 0.00 62 991.0
20260903022023 78 102 9.0 18.0 0.00 0.00 0.00 62 990.9
20260903021522 78 94 11.0 18.0 0.00 0.00 0.00 61 991.0
20260903021021 78 105 13.0 18.0 0.00 0.00 0.00 61 990.9
20260903020521 78 93 12.0 18.0 0.00 0.00 0.00 61 991.1
20260903020020 79 98 13.0 19.0 0.00 0.00 0.00 60 991.0
20260903015522 79 96 13.0 21.0 0.00 0.00 0.00 60 990.9
20260903015018 79 103 14.0 21.0 0.00 0.00 0.00 60 990.9
20260903014517 79 110 14.0 20.0 0.00 0.00 0.00 59 990.8